Tracking 30918 objects as of 2-Jul-2025
HD Live streaming from Space Station
objects crossing your sky now

DELTA 1 DEB

Track DELTA 1 DEB now!
10-day predictions


NORAD ID: 14883
Int'l Code: 1973-086GS
Perigee: 1,483.0 km
Apogee: 1,891.9 km
Inclination: 102.0 °
Period: 120.0 minutes
Semi major axis: 8058 km
RCS: 0.0421 m2 (small)
Launch date: November 6, 1973
Source: United States (US)
Launch site: AIR FORCE WESTERN TEST RANGE (AFWTR)

Note: This is SATELLITE DEBRIS
Your satellite tracking list
Your tracking list is empty




NASA's NSSDC Master Catalog

Two Line Element Set (TLE):
1 14883U 73086GS  25183.15133861  .00000196  00000-0  26479-2 0  9991
2 14883 102.0258  51.5450 0253696  39.4840 119.9567 12.00116218585618
Source of the keplerian elements: AFSPC